IBE07RZ LEMD-EGLL

Flight info

Callsign IBE07RZ
Flight time 1h 46m
Altitude 34000
Route SIE N858 DGO N867 NENEM DCT DIDIG UP87 ROXOG
Aircraft A320/M-SDE3FGHIRWY/LB1

Departure

Time 2026-05-05 18:49
Airport Adolfo Suárez Madrid–Barajas Airport (LEMD)

Arrival

Time 2026-05-05 20:35
Airport London Heathrow Airport (EGLL)
Time Latitude Longitude Altitude Speed Heading
2026-05-05 18:06 40.48965 -3.58964 2022 ft 0 kts 269°
2026-05-05 18:31 40.48965 -3.58954 2030 ft 4 kts 269°
2026-05-05 18:31 40.48965 -3.58923 2022 ft 2 kts 269°
2026-05-05 18:31 40.48968 -3.58893 2033 ft 4 kts 229°
2026-05-05 18:32 40.48988 -3.58879 2032 ft 3 kts 179°
2026-05-05 18:32 40.49002 -3.58880 2030 ft 0 kts 180°
2026-05-05 18:37 40.48990 -3.58880 2032 ft 5 kts 180°
2026-05-05 18:37 40.48961 -3.58879 2025 ft 3 kts 180°
2026-05-05 18:37 40.48923 -3.58879 2028 ft 7 kts 179°
2026-05-05 18:38 40.48892 -3.58879 2025 ft 8 kts 179°
2026-05-05 18:38 40.48815 -3.58878 2022 ft 12 kts 179°
2026-05-05 18:38 40.48758 -3.58811 2022 ft 9 kts 89°
2026-05-05 18:38 40.48759 -3.58763 2022 ft 7 kts 94°
2026-05-05 18:39 40.48758 -3.58705 2022 ft 6 kts 89°
2026-05-05 18:39 40.48759 -3.58660 2022 ft 6 kts 89°
2026-05-05 18:39 40.48759 -3.58583 2022 ft 9 kts 89°
2026-05-05 18:39 40.48760 -3.58463 2018 ft 16 kts 89°
2026-05-05 18:40 40.48760 -3.58326 2013 ft 14 kts 90°
2026-05-05 18:40 40.48761 -3.58191 2008 ft 16 kts 90°
2026-05-05 18:40 40.48762 -3.58039 2002 ft 18 kts 89°
2026-05-05 18:40 40.48762 -3.57871 1997 ft 19 kts 90°
2026-05-05 18:41 40.48763 -3.57690 1992 ft 20 kts 89°
2026-05-05 18:41 40.48764 -3.57511 1990 ft 19 kts 89°
2026-05-05 18:41 40.48764 -3.57335 1986 ft 19 kts 90°
2026-05-05 18:41 40.48765 -3.57158 1982 ft 19 kts 90°
2026-05-05 18:42 40.48766 -3.56982 1980 ft 19 kts 90°
2026-05-05 18:42 40.48766 -3.56807 1978 ft 19 kts 89°
2026-05-05 18:42 40.48767 -3.56634 1974 ft 19 kts 89°
2026-05-05 18:42 40.48768 -3.56457 1967 ft 20 kts 89°
2026-05-05 18:43 40.48768 -3.56274 1963 ft 19 kts 89°
2026-05-05 18:43 40.48808 -3.56141 1959 ft 17 kts 18°
2026-05-05 18:43 40.48924 -3.56138 1961 ft 17 kts 359°
2026-05-05 18:43 40.49046 -3.56139 1959 ft 18 kts
2026-05-05 18:44 40.49175 -3.56139 1958 ft 19 kts 359°
2026-05-05 18:44 40.49309 -3.56141 1959 ft 20 kts 359°
2026-05-05 18:44 40.49445 -3.56142 1959 ft 15 kts
2026-05-05 18:44 40.49552 -3.56142 1959 ft 16 kts
2026-05-05 18:45 40.49667 -3.56143 1959 ft 17 kts 360°
2026-05-05 18:45 40.49793 -3.56144 1959 ft 19 kts 360°
2026-05-05 18:45 40.49913 -3.56136 1958 ft 16 kts 25°
2026-05-05 18:45 40.49947 -3.56038 1958 ft 8 kts 72°
2026-05-05 18:46 40.49949 -3.56031 1958 ft 0 kts 72°
2026-05-05 18:46 40.49949 -3.56030 1958 ft 1 kts 72°
2026-05-05 18:47 40.49965 -3.55990 1959 ft 6 kts 56°
2026-05-05 18:47 40.50020 -3.55933 1959 ft 11 kts 24°
2026-05-05 18:47 40.50094 -3.55920 1960 ft 11 kts 360°
2026-05-05 18:47 40.50106 -3.55920 1960 ft 0 kts 360°
2026-05-05 18:48 40.50211 -3.55921 1961 ft 48 kts 359°
2026-05-05 18:48 40.50776 -3.55927 1964 ft 111 kts 360°
2026-05-05 18:48 40.51740 -3.55951 1954 ft 161 kts 358°
2026-05-05 18:48 40.52892 -3.55969 2503 ft 164 kts 359°
2026-05-05 18:49 40.54019 -3.55909 3264 ft 157 kts
2026-05-05 18:49 40.55156 -3.55899 3776 ft 173 kts 355°
2026-05-05 18:49 40.56412 -3.55882 4247 ft 187 kts 358°
2026-05-05 18:49 40.57750 -3.55803 4796 ft 196 kts
2026-05-05 18:50 40.59131 -3.55648 5285 ft 209 kts
2026-05-05 18:50 40.60646 -3.55295 5672 ft 233 kts 10°
2026-05-05 18:50 40.62221 -3.54667 6488 ft 234 kts 13°
2026-05-05 18:50 40.63802 -3.54069 7208 ft 238 kts
2026-05-05 18:51 40.65424 -3.53933 7914 ft 238 kts 348°
2026-05-05 18:51 40.67069 -3.54305 8678 ft 241 kts 347°
2026-05-05 18:51 40.68754 -3.54653 9475 ft 246 kts 349°
2026-05-05 18:51 40.70463 -3.54908 10240 ft 249 kts 351°
2026-05-05 18:52 40.72211 -3.55171 10913 ft 254 kts 347°
2026-05-05 18:52 40.73951 -3.55516 11632 ft 257 kts 348°
2026-05-05 18:52 40.75791 -3.55859 12042 ft 276 kts 349°
2026-05-05 18:52 40.77728 -3.56160 12667 ft 283 kts 350°
2026-05-05 18:53 40.79718 -3.56429 12967 ft 287 kts 351°
2026-05-05 18:53 40.81728 -3.56674 13419 ft 290 kts 352°
2026-05-05 18:53 40.83721 -3.56904 14186 ft 291 kts 352°
2026-05-05 18:53 40.85772 -3.57134 14911 ft 293 kts 352°
2026-05-05 18:54 40.87790 -3.57357 15587 ft 295 kts 352°
2026-05-05 18:54 40.89848 -3.57587 16271 ft 297 kts 351°
2026-05-05 18:54 40.91942 -3.57825 16670 ft 311 kts 352°
2026-05-05 18:54 40.94174 -3.58085 16810 ft 331 kts 352°
2026-05-05 18:55 40.96542 -3.58358 16958 ft 350 kts 352°
2026-05-05 18:55 40.99016 -3.58640 17357 ft 359 kts 352°
2026-05-05 18:55 41.01520 -3.58922 17949 ft 363 kts 352°
2026-05-05 18:55 41.04047 -3.59206 18518 ft 366 kts 352°
2026-05-05 18:56 41.06567 -3.59491 19057 ft 368 kts 351°
2026-05-05 18:56 41.09136 -3.59784 19621 ft 370 kts 351°
2026-05-05 18:56 41.11722 -3.60080 20159 ft 373 kts 351°
2026-05-05 18:56 41.14340 -3.60211 20695 ft 380 kts
2026-05-05 18:57 41.16926 -3.59490 21194 ft 391 kts 15°
2026-05-05 18:57 41.19469 -3.58137 21709 ft 395 kts 17°
2026-05-05 18:57 41.22029 -3.56743 22228 ft 398 kts 17°
2026-05-05 18:57 41.24603 -3.55337 22716 ft 401 kts 16°
2026-05-05 18:58 41.27198 -3.53923 23196 ft 404 kts 16°
2026-05-05 18:58 41.29816 -3.52496 23659 ft 407 kts 16°
2026-05-05 18:58 41.32449 -3.51058 24047 ft 410 kts 16°
2026-05-05 18:58 41.35070 -3.49621 24413 ft 413 kts 16°
2026-05-05 18:59 41.37740 -3.48156 24767 ft 416 kts 16°
2026-05-05 18:59 41.40435 -3.46676 25117 ft 419 kts 16°
2026-05-05 18:59 41.43147 -3.45186 25468 ft 422 kts 15°
2026-05-05 18:59 41.45869 -3.43688 25814 ft 425 kts 15°
2026-05-05 19:00 41.48598 -3.42188 26147 ft 429 kts 15°
2026-05-05 19:00 41.51373 -3.40664 26503 ft 432 kts 16°
2026-05-05 19:00 41.54163 -3.39131 26843 ft 434 kts 16°
2026-05-05 19:00 41.56971 -3.37583 27188 ft 437 kts 16°
2026-05-05 19:01 41.59803 -3.36018 27527 ft 440 kts 15°
2026-05-05 19:01 41.62652 -3.34443 27847 ft 443 kts 15°
2026-05-05 19:01 41.65482 -3.32876 28176 ft 446 kts 15°
2026-05-05 19:01 41.68369 -3.31277 28510 ft 448 kts 15°
2026-05-05 19:02 41.71261 -3.29676 28829 ft 451 kts 15°
2026-05-05 19:02 41.74179 -3.28059 29180 ft 454 kts 15°
2026-05-05 19:02 41.77109 -3.26431 29512 ft 456 kts 15°
2026-05-05 19:02 41.80037 -3.24928 29804 ft 451 kts
2026-05-05 19:03 41.83090 -3.24275 30074 ft 440 kts 355°
2026-05-05 19:03 41.86160 -3.24111 30316 ft 441 kts 354°
2026-05-05 19:03 41.89240 -3.23979 30548 ft 443 kts 354°
2026-05-05 19:03 41.92330 -3.23866 30774 ft 445 kts 354°
2026-05-05 19:04 41.95454 -3.23761 31042 ft 448 kts 355°
2026-05-05 19:04 41.98551 -3.23654 31289 ft 449 kts 355°
2026-05-05 19:04 42.01682 -3.23533 31598 ft 449 kts 355°
2026-05-05 19:04 42.04816 -3.23402 31910 ft 450 kts 355°
2026-05-05 19:05 42.07955 -3.23273 32209 ft 450 kts 355°
2026-05-05 19:05 42.11068 -3.23147 32517 ft 451 kts 355°
2026-05-05 19:05 42.14203 -3.23020 32800 ft 451 kts 356°
2026-05-05 19:05 42.17348 -3.22890 33139 ft 451 kts 356°
2026-05-05 19:06 42.20498 -3.22757 33451 ft 451 kts 356°
2026-05-05 19:06 42.23654 -3.22628 33768 ft 452 kts 356°
2026-05-05 19:06 42.26770 -3.22505 33989 ft 452 kts 356°
2026-05-05 19:06 42.29914 -3.22378 34031 ft 448 kts 356°
2026-05-05 19:07 42.35081 -3.22167 34029 ft 445 kts 356°
2026-05-05 19:07 42.42290 -3.21872 34031 ft 444 kts 356°
2026-05-05 19:08 42.48489 -3.21616 34026 ft 444 kts 356°
2026-05-05 19:08 42.54639 -3.21362 34027 ft 444 kts 356°
2026-05-05 19:09 42.60835 -3.21105 34048 ft 444 kts 357°
2026-05-05 19:09 42.67026 -3.20849 34041 ft 444 kts 357°
2026-05-05 19:10 42.73175 -3.20599 34034 ft 444 kts 357°
2026-05-05 19:10 42.79371 -3.20344 34030 ft 443 kts 357°
2026-05-05 19:11 42.85510 -3.20090 34027 ft 443 kts 357°
2026-05-05 19:11 42.91683 -3.19832 34023 ft 443 kts 357°
2026-05-05 19:12 42.96832 -3.19622 34026 ft 443 kts 357°
2026-05-05 19:12 43.03013 -3.19366 34042 ft 444 kts 357°
2026-05-05 19:13 43.09162 -3.19112 34044 ft 443 kts 357°
2026-05-05 19:13 43.15317 -3.18851 34035 ft 443 kts 358°
2026-05-05 19:14 43.21492 -3.18578 34047 ft 442 kts 358°
2026-05-05 19:14 43.27654 -3.18324 34030 ft 442 kts 358°
2026-05-05 19:15 43.33822 -3.18073 34024 ft 442 kts 358°
2026-05-05 19:15 43.39947 -3.17818 34030 ft 442 kts 358°
2026-05-05 19:16 43.46112 -3.17554 34024 ft 443 kts 358°
2026-05-05 19:16 43.52287 -3.17286 34014 ft 443 kts 358°
2026-05-05 19:17 43.58420 -3.17031 34007 ft 443 kts 358°
2026-05-05 19:17 43.64589 -3.16772 34019 ft 443 kts 359°
2026-05-05 19:18 43.70767 -3.16504 34008 ft 443 kts 359°
2026-05-05 19:18 43.76958 -3.16236 34006 ft 443 kts 359°
2026-05-05 19:19 43.83094 -3.15965 34007 ft 443 kts 359°
2026-05-05 19:19 43.89273 -3.15705 33996 ft 443 kts 359°
2026-05-05 19:20 43.95455 -3.15445 33987 ft 443 kts 359°
2026-05-05 19:20 44.01589 -3.15176 33997 ft 443 kts 360°
2026-05-05 19:21 44.07698 -3.13931 33992 ft 446 kts 15°
2026-05-05 19:21 44.13642 -3.11335 33978 ft 447 kts 15°
2026-05-05 19:22 44.19551 -3.08750 33982 ft 447 kts 15°
2026-05-05 19:22 44.25509 -3.06154 33982 ft 447 kts 16°
2026-05-05 19:23 44.31449 -3.03557 33972 ft 447 kts 15°
2026-05-05 19:23 44.37407 -3.00944 33968 ft 448 kts 16°
2026-05-05 19:24 44.43332 -2.98344 33975 ft 448 kts 15°
2026-05-05 19:24 44.49283 -2.95729 33980 ft 447 kts 16°
2026-05-05 19:25 44.55230 -2.93101 33972 ft 447 kts 15°
2026-05-05 19:25 44.61136 -2.90523 33982 ft 445 kts 14°
2026-05-05 19:26 44.67144 -2.88449 33986 ft 443 kts 11°
2026-05-05 19:26 44.73157 -2.86716 33989 ft 441 kts 10°
2026-05-05 19:27 44.79168 -2.84922 33976 ft 441 kts 11°
2026-05-05 19:27 44.85165 -2.83020 33969 ft 441 kts 12°
2026-05-05 19:28 44.91141 -2.81087 33965 ft 440 kts 11°
2026-05-05 19:28 44.97125 -2.79167 33968 ft 440 kts 12°
2026-05-05 19:29 45.03074 -2.77261 33974 ft 439 kts 12°
2026-05-05 19:29 45.09047 -2.75347 33960 ft 439 kts 12°
2026-05-05 19:30 45.15013 -2.73434 33961 ft 439 kts 11°
2026-05-05 19:30 45.20934 -2.71521 33961 ft 439 kts 12°
2026-05-05 19:31 45.26903 -2.69591 33951 ft 439 kts 12°
2026-05-05 19:31 45.32873 -2.67655 33937 ft 439 kts 12°
2026-05-05 19:32 45.38814 -2.65723 33937 ft 440 kts 13°
2026-05-05 19:32 45.44797 -2.63776 33944 ft 440 kts 12°
2026-05-05 19:33 45.50793 -2.61837 33941 ft 440 kts 12°
2026-05-05 19:33 45.56747 -2.59903 33943 ft 440 kts 13°
2026-05-05 19:34 45.62731 -2.57944 33937 ft 440 kts 13°
2026-05-05 19:35 45.71705 -2.54992 33924 ft 441 kts 13°
2026-05-05 19:35 45.77682 -2.53026 33935 ft 441 kts 13°
2026-05-05 19:36 45.83674 -2.51043 33938 ft 440 kts 14°
2026-05-05 19:36 45.89656 -2.49068 33940 ft 440 kts 14°
2026-05-05 19:37 45.95587 -2.47111 33931 ft 440 kts 14°
2026-05-05 19:37 46.01558 -2.45124 33933 ft 439 kts 13°
2026-05-05 19:38 46.07509 -2.43139 33933 ft 439 kts 14°
2026-05-05 19:38 46.13475 -2.41151 33939 ft 438 kts 14°
2026-05-05 19:39 46.19391 -2.39177 33934 ft 437 kts 14°
2026-05-05 19:39 46.25334 -2.37188 33923 ft 438 kts 14°
2026-05-05 19:40 46.31290 -2.35189 33926 ft 438 kts 14°
2026-05-05 19:40 46.37210 -2.33209 33920 ft 438 kts 14°
2026-05-05 19:41 46.43157 -2.31206 33929 ft 438 kts 13°
2026-05-05 19:41 46.49090 -2.29196 33932 ft 437 kts 14°
2026-05-05 19:42 46.55026 -2.27177 33927 ft 437 kts 15°
2026-05-05 19:42 46.60928 -2.25181 33937 ft 436 kts 13°
2026-05-05 19:43 46.66821 -2.23186 33943 ft 435 kts 14°
2026-05-05 19:43 46.72716 -2.21171 33939 ft 434 kts 14°
2026-05-05 19:44 46.78608 -2.19156 33933 ft 434 kts 15°
2026-05-05 19:44 46.83502 -2.17479 33927 ft 434 kts 14°
2026-05-05 19:45 46.89389 -2.15462 33925 ft 434 kts 14°
2026-05-05 19:45 46.95270 -2.13433 33923 ft 433 kts 14°
2026-05-05 19:46 47.01147 -2.11411 33910 ft 433 kts 15°
2026-05-05 19:46 47.07019 -2.09388 33916 ft 433 kts 15°
2026-05-05 19:47 47.12858 -2.07369 33918 ft 433 kts 14°
2026-05-05 19:47 47.18717 -2.05338 33906 ft 434 kts 15°
2026-05-05 19:48 47.24630 -2.03283 33905 ft 435 kts 15°
2026-05-05 19:48 47.30549 -2.01219 33903 ft 436 kts 15°
2026-05-05 19:49 47.36441 -1.99152 33897 ft 437 kts 14°
2026-05-05 19:49 47.42388 -1.97063 33895 ft 438 kts 14°
2026-05-05 19:50 47.48283 -1.95006 33900 ft 438 kts 15°
2026-05-05 19:50 47.54220 -1.92919 33905 ft 439 kts 15°
2026-05-05 19:51 47.60169 -1.90820 33905 ft 439 kts 15°
2026-05-05 19:51 47.66113 -1.88713 33913 ft 438 kts 15°
2026-05-05 19:52 47.72065 -1.86601 33918 ft 438 kts 15°
2026-05-05 19:52 47.77983 -1.84509 33917 ft 438 kts 15°
2026-05-05 19:53 47.83930 -1.82401 33923 ft 438 kts 15°
2026-05-05 19:53 47.89824 -1.80302 33934 ft 437 kts 15°
2026-05-05 19:54 47.95740 -1.78179 33945 ft 437 kts 15°
2026-05-05 19:54 48.01662 -1.76045 33938 ft 437 kts 15°
2026-05-05 19:55 48.07646 -1.74272 33937 ft 438 kts
2026-05-05 19:55 48.13752 -1.74275 33940 ft 439 kts
2026-05-05 19:56 48.19843 -1.74347 33933 ft 439 kts
2026-05-05 19:56 48.25976 -1.74400 33923 ft 439 kts
2026-05-05 19:57 48.32056 -1.74468 33918 ft 439 kts
2026-05-05 19:57 48.38178 -1.74543 33919 ft 440 kts
2026-05-05 19:58 48.44310 -1.74625 33922 ft 440 kts
2026-05-05 19:58 48.50446 -1.74694 33924 ft 440 kts
2026-05-05 19:59 48.56581 -1.74760 33919 ft 440 kts
2026-05-05 19:59 48.62698 -1.74844 33927 ft 441 kts
2026-05-05 20:00 48.68845 -1.74915 33922 ft 441 kts
2026-05-05 20:00 48.74974 -1.74978 33921 ft 442 kts
2026-05-05 20:01 48.81165 -1.75061 33927 ft 443 kts
2026-05-05 20:01 48.87296 -1.75141 33932 ft 443 kts
2026-05-05 20:02 48.93476 -1.75183 33935 ft 442 kts
2026-05-05 20:02 48.99630 -1.74974 33943 ft 442 kts
2026-05-05 20:03 49.05752 -1.74668 33941 ft 441 kts
2026-05-05 20:03 49.11922 -1.74388 33932 ft 441 kts
2026-05-05 20:04 49.18036 -1.74159 33932 ft 442 kts
2026-05-05 20:04 49.24210 -1.73932 33925 ft 442 kts
2026-05-05 20:05 49.30328 -1.73710 33926 ft 442 kts
2026-05-05 20:05 49.36493 -1.73477 33929 ft 442 kts
2026-05-05 20:06 49.42647 -1.73244 33930 ft 442 kts
2026-05-05 20:06 49.48802 -1.72996 33930 ft 442 kts
2026-05-05 20:07 49.54918 -1.72757 33930 ft 441 kts
2026-05-05 20:07 49.61070 -1.72515 33933 ft 441 kts
2026-05-05 20:08 49.67174 -1.72045 33933 ft 440 kts
2026-05-05 20:08 49.73303 -1.71444 33932 ft 440 kts
2026-05-05 20:09 49.79390 -1.70896 33933 ft 439 kts
2026-05-05 20:09 49.85495 -1.70386 33936 ft 438 kts
2026-05-05 20:10 49.91607 -1.69878 33929 ft 438 kts
2026-05-05 20:10 49.97695 -1.69353 33929 ft 437 kts
2026-05-05 20:11 50.03632 -1.67399 33919 ft 439 kts 18°
2026-05-05 20:11 50.06556 -1.65969 33674 ft 441 kts 18°
2026-05-05 20:11 50.09489 -1.64548 32372 ft 452 kts 17°
2026-05-05 20:11 50.12514 -1.63090 31502 ft 454 kts 17°
2026-05-05 20:12 50.15521 -1.61640 30812 ft 451 kts 17°
2026-05-05 20:12 50.18524 -1.60189 30174 ft 447 kts 17°
2026-05-05 20:12 50.21494 -1.58750 29431 ft 445 kts 17°
2026-05-05 20:12 50.24443 -1.57316 28747 ft 440 kts 17°
2026-05-05 20:13 50.27355 -1.55899 28187 ft 434 kts 17°
2026-05-05 20:13 50.30226 -1.54499 27530 ft 430 kts 17°
2026-05-05 20:13 50.33047 -1.53113 26985 ft 425 kts 17°
2026-05-05 20:13 50.35863 -1.51725 26385 ft 421 kts 17°
2026-05-05 20:14 50.38636 -1.50361 25887 ft 415 kts 17°
2026-05-05 20:14 50.41380 -1.49014 25409 ft 408 kts 16°
2026-05-05 20:14 50.44077 -1.47692 24931 ft 403 kts 16°
2026-05-05 20:14 50.46697 -1.46401 24464 ft 397 kts 16°
2026-05-05 20:15 50.49323 -1.45105 23998 ft 392 kts 16°
2026-05-05 20:15 50.51911 -1.43831 23524 ft 388 kts 16°
2026-05-05 20:15 50.54438 -1.42318 22988 ft 384 kts 25°
2026-05-05 20:15 50.56775 -1.40327 22517 ft 379 kts 27°
2026-05-05 20:16 50.59080 -1.38343 22043 ft 374 kts 28°
2026-05-05 20:16 50.61361 -1.36393 21567 ft 371 kts 28°
2026-05-05 20:16 50.63621 -1.34460 21096 ft 367 kts 28°
2026-05-05 20:16 50.65832 -1.32563 20627 ft 365 kts 28°
2026-05-05 20:17 50.68056 -1.30650 20145 ft 363 kts 28°
2026-05-05 20:17 50.70272 -1.28740 19660 ft 361 kts 28°
2026-05-05 20:17 50.71732 -1.27480 19357 ft 360 kts 28°
2026-05-05 20:17 50.74647 -1.24962 18736 ft 358 kts 28°
2026-05-05 20:18 50.76824 -1.23052 18274 ft 356 kts 30°
2026-05-05 20:18 50.78259 -1.21690 17919 ft 356 kts 32°
2026-05-05 20:18 50.80321 -1.19600 17458 ft 353 kts 33°
2026-05-05 20:18 50.82367 -1.17442 17004 ft 350 kts 33°
2026-05-05 20:19 50.84374 -1.15304 16559 ft 347 kts 33°
2026-05-05 20:19 50.86353 -1.13202 16123 ft 344 kts 33°
2026-05-05 20:19 50.88345 -1.11104 15686 ft 342 kts 33°
2026-05-05 20:19 50.90333 -1.09024 15248 ft 340 kts 33°
2026-05-05 20:20 50.92318 -1.06959 14811 ft 338 kts 32°
2026-05-05 20:20 50.94263 -1.04944 14375 ft 337 kts 32°
2026-05-05 20:20 50.96230 -1.02907 13945 ft 336 kts 32°
2026-05-05 20:20 50.98190 -1.00875 13474 ft 335 kts 32°
2026-05-05 20:21 51.00115 -0.98809 13021 ft 332 kts 37°
2026-05-05 20:21 51.01764 -0.96262 12648 ft 328 kts 47°
2026-05-05 20:21 51.03267 -0.93566 12318 ft 323 kts 47°
2026-05-05 20:21 51.04755 -0.90913 11974 ft 319 kts 47°
2026-05-05 20:22 51.06211 -0.88326 11647 ft 315 kts 47°
2026-05-05 20:22 51.07673 -0.85733 11310 ft 313 kts 47°
2026-05-05 20:22 51.09121 -0.83158 10981 ft 311 kts 47°
2026-05-05 20:22 51.10563 -0.80589 10654 ft 309 kts 47°
2026-05-05 20:23 51.11976 -0.78069 10332 ft 307 kts 47°
2026-05-05 20:23 51.13388 -0.75544 10113 ft 300 kts 46°
2026-05-05 20:23 51.14752 -0.73102 9966 ft 290 kts 46°
2026-05-05 20:23 51.16077 -0.70724 9752 ft 282 kts 46°
2026-05-05 20:24 51.17380 -0.68385 9492 ft 282 kts 46°
2026-05-05 20:24 51.18682 -0.66047 9159 ft 280 kts 46°
2026-05-05 20:24 51.19975 -0.63722 8814 ft 278 kts 46°
2026-05-05 20:24 51.21238 -0.61447 8476 ft 277 kts 46°
2026-05-05 20:25 51.22509 -0.59157 8136 ft 275 kts 47°
2026-05-05 20:25 51.23781 -0.56860 7794 ft 274 kts 47°
2026-05-05 20:25 51.25033 -0.54598 7458 ft 271 kts 47°
2026-05-05 20:25 51.26279 -0.52351 7201 ft 264 kts 46°
2026-05-05 20:26 51.27656 -0.50554 7087 ft 249 kts 23°
2026-05-05 20:26 51.29294 -0.50025 6973 ft 236 kts 356°
2026-05-05 20:26 51.30839 -0.50753 6966 ft 233 kts 330°
2026-05-05 20:26 51.32008 -0.52535 6972 ft 237 kts 303°
2026-05-05 20:27 51.32625 -0.54952 6975 ft 239 kts 290°
2026-05-05 20:27 51.33148 -0.57525 6977 ft 240 kts 290°
2026-05-05 20:27 51.33653 -0.60031 6970 ft 239 kts 290°
2026-05-05 20:27 51.34167 -0.62575 6972 ft 239 kts 290°
2026-05-05 20:28 51.34682 -0.65102 6970 ft 239 kts 290°
2026-05-05 20:28 51.35191 -0.67641 6739 ft 241 kts 289°
2026-05-05 20:28 51.35690 -0.70193 6455 ft 239 kts 289°
2026-05-05 20:28 51.36183 -0.72734 6190 ft 238 kts 289°
2026-05-05 20:29 51.36676 -0.75218 6002 ft 236 kts 292°
2026-05-05 20:29 51.37565 -0.77365 5953 ft 232 kts 320°
2026-05-05 20:29 51.38935 -0.78542 5957 ft 218 kts 347°
2026-05-05 20:29 51.40396 -0.78737 5962 ft 203 kts 358°
2026-05-05 20:30 51.41787 -0.78807 5878 ft 199 kts 358°
2026-05-05 20:30 51.43192 -0.78884 5411 ft 202 kts 358°
2026-05-05 20:30 51.44576 -0.78732 4857 ft 202 kts 14°
2026-05-05 20:30 51.45852 -0.77853 4298 ft 200 kts 33°
2026-05-05 20:31 51.46856 -0.76335 3752 ft 198 kts 53°
2026-05-05 20:31 51.47459 -0.74383 3348 ft 192 kts 72°
2026-05-05 20:31 51.47626 -0.72312 3068 ft 183 kts 88°
2026-05-05 20:31 51.47636 -0.70350 2826 ft 170 kts 87°
2026-05-05 20:32 51.47647 -0.68517 2614 ft 158 kts 87°
2026-05-05 20:32 51.47658 -0.66803 2388 ft 150 kts 88°
2026-05-05 20:32 51.47667 -0.65152 2188 ft 147 kts 87°
2026-05-05 20:32 51.47677 -0.63520 1989 ft 146 kts 88°
2026-05-05 20:33 51.47685 -0.61893 1790 ft 145 kts 88°
2026-05-05 20:33 51.47694 -0.60278 1588 ft 144 kts 89°
2026-05-05 20:33 51.47702 -0.58669 1399 ft 144 kts 89°
2026-05-05 20:33 51.47710 -0.57080 1203 ft 143 kts 89°
2026-05-05 20:34 51.47717 -0.55475 1005 ft 144 kts 88°
2026-05-05 20:34 51.47725 -0.53870 797 ft 144 kts 88°
2026-05-05 20:34 51.47732 -0.52253 599 ft 144 kts 88°
2026-05-05 20:34 51.47739 -0.50663 401 ft 145 kts 86°
2026-05-05 20:35 51.47746 -0.49054 206 ft 143 kts 86°
2026-05-05 20:35 51.47748 -0.47477 92 ft 133 kts 86°
2026-05-05 20:35 51.47761 -0.46231 87 ft 88 kts 90°
2026-05-05 20:35 51.47761 -0.45637 85 ft 20 kts 92°
2026-05-05 20:36 51.47710 -0.45478 87 ft 17 kts 159°
2026-05-05 20:36 51.47656 -0.45468 86 ft 0 kts 179°
2026-05-05 20:36 51.47653 -0.45468 86 ft 3 kts 179°
2026-05-05 20:37 51.47629 -0.45472 86 ft 6 kts 195°
2026-05-05 20:37 51.47597 -0.45554 86 ft 9 kts 263°
2026-05-05 20:37 51.47596 -0.45673 86 ft 13 kts 270°
2026-05-05 20:37 51.47596 -0.45811 88 ft 12 kts 270°
2026-05-05 20:38 51.47595 -0.45934 87 ft 10 kts 270°
2026-05-05 20:38 51.47595 -0.46046 87 ft 9 kts 269°
2026-05-05 20:38 51.47595 -0.46145 89 ft 8 kts 269°
2026-05-05 20:38 51.47594 -0.46233 90 ft 7 kts 269°
2026-05-05 20:39 51.47594 -0.46366 86 ft 16 kts 270°
2026-05-05 20:39 51.47593 -0.46537 86 ft 15 kts 269°
2026-05-05 20:39 51.47592 -0.46689 86 ft 13 kts 269°
2026-05-05 20:39 51.47588 -0.46838 86 ft 16 kts 261°
2026-05-05 20:40 51.47583 -0.47020 90 ft 16 kts 270°
2026-05-05 20:40 51.47582 -0.47186 88 ft 14 kts 269°
2026-05-05 20:40 51.47581 -0.47338 90 ft 13 kts 269°
2026-05-05 20:40 51.47581 -0.47476 86 ft 12 kts 270°
2026-05-05 20:41 51.47581 -0.47600 90 ft 11 kts 270°
2026-05-05 20:41 51.47581 -0.47714 90 ft 10 kts 270°
2026-05-05 20:41 51.47580 -0.47837 90 ft 15 kts 269°
2026-05-05 20:41 51.47579 -0.47994 88 ft 14 kts 269°
2026-05-05 20:42 51.47579 -0.48138 88 ft 12 kts 270°
2026-05-05 20:42 51.47579 -0.48266 88 ft 11 kts 270°
2026-05-05 20:42 51.47547 -0.48355 86 ft 9 kts 198°
2026-05-05 20:42 51.47484 -0.48360 86 ft 9 kts 180°
2026-05-05 20:43 51.47426 -0.48361 86 ft 8 kts 179°
2026-05-05 20:43 51.47359 -0.48359 86 ft 11 kts 179°
2026-05-05 20:43 51.47285 -0.48358 86 ft 10 kts 180°
2026-05-05 20:43 51.47218 -0.48357 86 ft 9 kts 180°
2026-05-05 20:44 51.47155 -0.48357 88 ft 9 kts 179°
2026-05-05 20:44 51.47098 -0.48356 88 ft 8 kts 179°
2026-05-05 20:44 51.47056 -0.48389 87 ft 6 kts 240°
2026-05-05 20:44 51.47049 -0.48455 88 ft 6 kts 268°
2026-05-05 20:45 51.47049 -0.48561 89 ft 3 kts 270°
2026-05-05 20:45 51.47049 -0.48581 87 ft 0 kts 269°
2026-05-05 20:45 51.47049 -0.48582 87 ft 0 kts 269°